TimeEST,TemperatureF,Dew PointF,Humidity,Sea Level PressureIn,VisibilityMPH,Wind Direction,Wind SpeedMPH,Gust SpeedMPH,PrecipitationIn,Events,Conditions,WindDirDegrees,DateUTC
12:53 AM,66.0,60.1,81,30.02,10.0,South,8.1,-,N/A,,Overcast,190,2013-01-16 05:53:00
1:53 AM,66.9,61.0,81,30.02,10.0,SSW,8.1,-,N/A,,Overcast,200,2013-01-16 06:53:00
3:53 AM,64.9,61.0,87,30.01,10.0,SSW,4.6,-,N/A,,Mostly Cloudy,200,2013-01-16 08:53:00
4:53 AM,64.9,61.0,87,30.00,10.0,SSW,8.1,-,N/A,,Overcast,200,2013-01-16 09:53:00
5:53 AM,64.9,61.0,87,30.00,10.0,SSW,5.8,-,N/A,,Overcast,200,2013-01-16 10:53:00
7:53 AM,63.0,61.0,93,30.02,10.0,South,5.8,-,N/A,,Mostly Cloudy,190,2013-01-16 12:53:00
8:53 AM,64.9,61.0,87,30.04,10.0,South,6.9,-,N/A,,Overcast,190,2013-01-16 13:53:00
9:53 AM,69.1,60.1,73,30.04,10.0,SW,11.5,17.3,N/A,,Mostly Cloudy,220,2013-01-16 14:53:00
10:53 AM,73.9,60.1,62,30.03,10.0,SW,11.5,-,N/A,,Scattered Clouds,220,2013-01-16 15:53:00
11:53 AM,75.9,59.0,56,29.99,10.0,WSW,15.0,26.5,N/A,,Clear,240,2013-01-16 16:53:00
12:53 PM,78.1,59.0,52,29.97,10.0,WSW,16.1,20.7,N/A,,Clear,240,2013-01-16 17:53:00
1:53 PM,80.1,57.0,45,29.95,10.0,WSW,13.8,18.4,N/A,,Partly Cloudy,250,2013-01-16 18:53:00
2:53 PM,80.1,57.0,45,29.94,10.0,SSW,9.2,-,N/A,,Clear,210,2013-01-16 19:53:00
3:53 PM,80.1,57.0,45,29.94,10.0,SW,9.2,17.3,N/A,,Mostly Cloudy,230,2013-01-16 20:53:00
4:53 PM,79.0,57.0,47,29.95,10.0,SSW,4.6,-,N/A,,Partly Cloudy,210,2013-01-16 21:53:00
6:53 PM,72.0,57.9,61,29.96,10.0,South,3.5,-,N/A,,Clear,170,2013-01-16 23:53:00
7:53 PM,70.0,60.1,71,29.98,10.0,South,4.6,-,N/A,,Mostly Cloudy,180,2013-01-17 00:53:00
8:53 PM,69.1,61.0,75,29.99,10.0,Calm,Calm,-,N/A,,Overcast,0,2013-01-17 01:53:00
9:53 PM,66.0,60.1,81,29.97,10.0,Calm,Calm,-,N/A,,Clear,0,2013-01-17 02:53:00
10:53 PM,64.9,60.1,84,29.97,10.0,Calm,Calm,-,N/A,,Mostly Cloudy,0,2013-01-17 03:53:00
11:53 PM,64.0,60.1,87,29.96,10.0,South,3.5,-,N/A,,Partly Cloudy,180,2013-01-17 04:53:00